Location: Rathdrum
(47.8130°N, 116.8960°W)
Time: 06:55:32
(UTC-07:00)

Amateur Radio Satellites - All Passes

Search period start: 23 August 2017 06:25
Search period end: 24 August 2017 06:25
Location: Rathdrum, 47.8130°N, 116.8960°W

Satellite Date Start Highest point End Downlink Frequencies (MHz)
Time Altitude Azimuth
NUDT-PHONESAT 23 Aug 06:27:37 06:30:40 23° 94° (E) 06:33:42 437.300
BEESAT 3 23 Aug 06:28:49 06:32:11 25° 322° (NW) 06:35:34 437.485
LilacSat-2 23 Aug 06:30:38 06:34:15 36° 97° (E) 06:37:50 437.200
XW-2D 23 Aug 06:31:31 06:35:05 35° 97° (E) 06:38:39 145.860 - 145.880
XW-2B 23 Aug 06:42:33 06:46:16 45° 99° (E) 06:49:59 145.730 - 145.750
CUTE-I 23 Aug 06:46:10 06:51:13 42° 98° (E) 06:56:14 437.470
BEESAT 2 23 Aug 06:48:00 06:51:46 37° 316° (NW) 06:55:35 435.950
NO-84 23 Aug 06:49:16 06:52:13 79° 33° (NNE) 06:55:19 435.350 FM
CUTE 1.7 + AOD 2 23 Aug 06:59:34 07:02:12 16° 89° (E) 07:04:47 437.475
XW-2C 23 Aug 07:01:42 07:05:34 78° 102° (ESE) 07:09:26 145.795 - 145.815
XW-2F 23 Aug 07:11:38 07:15:30 86° 284° (WNW) 07:19:20 145.980 - 146.000
STRAND 1 23 Aug 07:15:29 07:20:36 87° 76° (ENE) 07:25:44 437.568
AO-7 23 Aug 07:22:57 07:28:18 19° 319° (NW) 07:33:39 .
PCSat 23 Aug 07:23:30 07:28:57 76° 239° (WSW) 07:34:20 145.827
SO-50 23 Aug 07:31:14 07:35:43 58° 237° (WSW) 07:40:14 436.795
KAITUO 1B 23 Aug 07:32:17 07:36:03 61° 287° (WNW) 07:39:48 145.475/437.950
CUBEBUG 2 23 Aug 07:37:37 07:40:47 20° 92° (E) 07:44:00 437.445
FO-29 23 Aug 07:38:30 07:44:00 24° 58° (ENE) 07:49:05 435.910
SEEDS 23 Aug 07:41:28 07:45:04 26° 94° (E) 07:48:39 437.485
DOVE 4 23 Aug 07:45:39 07:48:45 18° 300° (WNW) 07:51:43 437.250
AO-85 23 Aug 07:57:05 07:58:29 12° 337° (NNW) 07:59:54 145.980
ZACube-1 23 Aug 07:59:32 08:01:14 12° 88° (E) 08:02:55 437.345
NUDT-PHONESAT 23 Aug 08:01:16 08:04:35 30° 291° (WNW) 08:07:53 437.300
HO-68 23 Aug 08:03:51 08:10:58 62° 103° (ESE) 08:18:03 435.675
LilacSat-2 23 Aug 08:05:21 08:08:20 21° 295° (WNW) 08:11:18 437.200
XW-2D 23 Aug 08:06:07 08:09:04 21° 295° (WNW) 08:12:01 145.860 - 145.880
XW-2B 23 Aug 08:17:33 08:20:08 17° 297° (WNW) 08:22:43 145.730 - 145.750
UNISAT 6 23 Aug 08:18:03 08:19:51 12° 58° (ENE) 08:21:39 437.425
AO-73 23 Aug 08:18:07 08:20:57 17° 90° (E) 08:23:49 145.935
AAUSAT CUBESAT 2 23 Aug 08:18:41 08:22:23 30° 95° (E) 08:26:04 437.432
XW-2A 23 Aug 08:20:18 08:23:39 53° 100° (E) 08:27:00 145.665 - 145.685
CUTE-I 23 Aug 08:26:29 08:31:09 32° 297° (WNW) 08:35:47 437.470
NO-84 23 Aug 08:27:32 08:29:16 14° 228° (SW) 08:31:03 435.350 FM
BEESAT 2 23 Aug 08:29:32 08:30:39 11° 338° (NNW) 08:31:46 435.950
CUTE 1.7 + AOD 2 23 Aug 08:34:09 08:38:24 59° 287° (WNW) 08:42:37 437.475
XW-2C 23 Aug 08:37:53 08:39:11 11° 300° (WNW) 08:40:29 145.795 - 145.815
TIGRISAT 23 Aug 08:50:31 08:53:52 23° 64° (ENE) 08:57:12 435.000
STRAND 1 23 Aug 08:57:56 09:00:28 14° 273° (W) 09:03:01 437.568
Oscar 11 23 Aug 08:59:17 09:03:13 32° 95° (E) 09:07:07 .
UWE-3 23 Aug 09:00:14 09:04:30 85° 102° (ESE) 09:08:52 435.000/436.395/437.385
PRISM 23 Aug 09:07:05 09:10:31 25° 65° (ENE) 09:13:57 437.425
RS-15 23 Aug 09:09:08 09:17:01 20° 96° (E) 09:24:56 29.354- 29.394
PCSat 23 Aug 09:09:16 09:11:24 12° 258° (WSW) 09:13:32 145.827
Tancredo 1 23 Aug 09:11:54 09:14:45 55° 151° (SSE) 09:17:37 437.200
CUBEBUG 2 23 Aug 09:13:37 09:17:37 43° 289° (WNW) 09:21:40 437.445
SEEDS 23 Aug 09:16:57 09:20:48 34° 292° (WNW) 09:24:38 437.485
FO-29 23 Aug 09:21:02 09:28:30 82° 256° (WSW) 09:35:11 435.910
O/OREOS (USA 219) 23 Aug 09:30:10 09:34:37 76° 114° (ESE) 09:39:07 437.305
ISS 23 Aug 09:32:06 09:34:58 28° 143° (SE) 09:37:50 437.550
ZACube-1 23 Aug 09:33:43 09:38:01 78° 287° (WNW) 09:42:24 437.345
nSIGHT-1 23 Aug 09:36:40 09:39:37 32° 144° (SE) 09:42:35 .
M-CUBED/EXP-1 PRIME 23 Aug 09:45:35 09:48:46 19° 54° (NE) 09:51:58 437.505
Max Valier Satellite 23 Aug 09:46:09 09:48:45 18° 92° (E) 09:51:21 145.860
AIST 2D 23 Aug 09:50:32 09:51:09 10° 60° (ENE) 09:51:47 435.315
UNISAT 6 23 Aug 09:51:38 09:55:57 85° 256° (WSW) 10:00:15 437.425
HO-68 23 Aug 09:52:08 09:58:19 33° 303° (WNW) 10:04:30 435.675
AO-73 23 Aug 09:53:18 09:57:30 55° 288° (WNW) 10:01:47 145.935
AAUSAT CUBESAT 2 23 Aug 09:54:10 09:57:48 29° 293° (WNW) 10:01:24 437.432
XW-2A 23 Aug 09:54:31 09:55:58 12° 298° (WNW) 09:57:25 145.665 - 145.685
QB50P2 23 Aug 10:12:17 10:13:59 12° 58° (ENE) 10:15:41 145.880/145.840
EO-79 23 Aug 10:12:26 10:13:43 11° 57° (ENE) 10:14:58 145.935-145.965
TIGRISAT 23 Aug 10:26:17 10:30:21 41° 262° (W) 10:34:24 435.000
EO-88 23 Aug 10:33:18 10:36:53 47° 99° (E) 10:40:26 145.990 - 145.960
DELFI C3 23 Aug 10:33:39 10:37:39 80° 102° (ESE) 10:41:37 145.870
Oscar 11 23 Aug 10:35:30 10:39:17 29° 294° (WNW) 10:43:04 .
DUCHIFAT 1 23 Aug 10:37:34 10:40:06 16° 60° (ENE) 10:42:37 145.980
UWE-3 23 Aug 10:38:34 10:40:23 13° 301° (WNW) 10:42:12 435.000/436.395/437.385
PRISM 23 Aug 10:41:49 10:45:38 35° 263° (W) 10:49:30 437.425
Tancredo 1 23 Aug 10:47:12 10:50:00 42° 350° (N) 10:52:48 437.200
ISS 23 Aug 11:08:00 11:11:16 66° 341° (NNW) 11:14:32 437.550
FO-29 23 Aug 11:09:48 11:14:18 17° 273° (W) 11:18:36 435.910
O/OREOS (USA 219) 23 Aug 11:11:38 11:14:36 17° 314° (NW) 11:17:35 437.305
nSIGHT-1 23 Aug 11:12:38 11:15:53 61° 343° (NNW) 11:19:07 .
ZACube-1 23 Aug 11:12:48 11:13:35 10° 303° (WNW) 11:14:23 437.345
RS-15 23 Aug 11:15:06 11:27:14 72° 120° (ESE) 11:39:27 29.354- 29.394
M-CUBED/EXP-1 PRIME 23 Aug 11:18:03 11:22:38 73° 252° (WSW) 11:27:20 437.505
Max Valier Satellite 23 Aug 11:19:17 11:22:44 38° 290° (WNW) 11:26:12 145.860
AIST 2D 23 Aug 11:20:20 11:23:49 71° 258° (WSW) 11:27:20 435.315
AO-85 23 Aug 11:20:50 11:23:08 14° 28° (NNE) 11:25:30 145.980
NANOSAT C BR1 23 Aug 11:22:23 11:26:23 46° 70° (ENE) 11:30:24 145.865
BEESAT 3 23 Aug 11:27:09 11:29:58 18° 33° (NNE) 11:32:45 437.485
POLYITAN 1 23 Aug 11:29:41 11:33:48 61° 73° (ENE) 11:37:57 437.675
EO-79 23 Aug 11:44:35 11:48:47 87° 75° (ENE) 11:53:01 145.935-145.965
QB50P2 23 Aug 11:44:56 11:49:09 85° 257° (WSW) 11:53:22 145.880/145.840
BEESAT 2 23 Aug 11:47:51 11:49:57 14° 27° (NNE) 11:52:03 435.950
LO-87 23 Aug 11:53:54 11:57:25 57° 101° (E) 12:00:53 145.935 - 145.965
BUGSAT 1 23 Aug 12:00:22 12:03:56 30° 67° (ENE) 12:07:29 437.445
ESTCUBE 1 23 Aug 12:01:37 12:05:59 44° 99° (E) 12:10:20 437.505/2401.250
EO-88 23 Aug 12:07:57 12:10:12 16° 297° (WNW) 12:12:28 145.990 - 145.960
DELFI C3 23 Aug 12:10:21 12:11:49 12° 301° (WNW) 12:13:16 145.870
DUCHIFAT 1 23 Aug 12:11:11 12:15:18 62° 258° (WSW) 12:19:27 145.980
Tancredo 1 23 Aug 12:22:43 12:25:31 41° 9° (N) 12:28:17 437.200
Gurwin Techsat 1B 23 Aug 12:32:49 12:37:11 26° 61° (ENE) 12:41:33 435.225
Oscar 19 23 Aug 12:35:18 12:40:02 38° 66° (ENE) 12:44:48 437.125/150
ISS 23 Aug 12:44:56 12:48:04 40° 1° (N) 12:51:12 437.550
nSIGHT-1 23 Aug 12:49:28 12:52:35 40° 3° (N) 12:55:42 .
AO-7 23 Aug 12:50:10 12:55:39 20° 41° (NE) 13:01:06 .
NANOSAT C BR1 23 Aug 12:59:21 13:02:20 19° 268° (W) 13:05:19 145.865
AO-85 23 Aug 13:00:10 13:04:21 58° 49° (NE) 13:08:49 145.980
BEESAT 3 23 Aug 13:04:03 13:08:06 88° 234° (SW) 13:12:03 437.485
POLYITAN 1 23 Aug 13:07:40 13:10:00 14° 270° (W) 13:12:20 437.675
SPROUT 23 Aug 13:17:27 13:21:43 72° 103° (ESE) 13:25:56 437.525
BEESAT 2 23 Aug 13:24:33 13:28:35 55° 48° (NE) 13:32:33 435.950
DX 1 23 Aug 13:24:51 13:28:09 21° 93° (E) 13:31:25 434.975-435.025
EO-79 23 Aug 13:24:56 13:25:10 10° 273° (W) 13:25:23 145.935-145.965
RS-15 23 Aug 13:28:39 13:40:35 51° 327° (NNW) 13:52:29 29.354- 29.394
LO-87 23 Aug 13:28:52 13:30:24 12° 298° (WNW) 13:31:56 145.935 - 145.965
VELOX 1 23 Aug 13:31:58 13:36:26 78° 105° (ESE) 13:40:49 145.980
BUGSAT 1 23 Aug 13:35:49 13:39:18 27° 265° (W) 13:42:45 437.445
ESTCUBE 1 23 Aug 13:38:55 13:42:32 24° 297° (WNW) 13:46:08 437.505/2401.250
50 SAT 23 Aug 13:45:51 13:49:06 42° 99° (E) 13:52:18 437.505
Tancredo 1 23 Aug 13:57:54 14:00:46 60° 209° (SSW) 14:03:38 437.200
ITAMSAT 1 23 Aug 14:02:27 14:06:16 21° 59° (ENE) 14:10:04 435.822/435.867
Gurwin Techsat 1B 23 Aug 14:11:40 14:16:50 52° 260° (W) 14:22:03 435.225
Oscar 19 23 Aug 14:14:45 14:19:23 33° 264° (W) 14:24:04 437.125/150
ISS 23 Aug 14:21:33 14:24:50 75° 20° (NNE) 14:28:06 437.550
nSIGHT-1 23 Aug 14:25:57 14:29:14 81° 25° (NNE) 14:32:29 .
YUBILEINY 23 Aug 14:31:15 14:38:01 26° 79° (ENE) 14:44:45 435.215
UKube-1 23 Aug 14:32:19 14:36:39 65° 103° (ESE) 14:40:54 .
AO-7 23 Aug 14:38:41 14:46:54 64° 64° (ENE) 14:55:09 .
AO-85 23 Aug 14:41:13 14:44:27 21° 245° (WSW) 14:47:51 145.980
BEESAT 3 23 Aug 14:44:19 14:44:57 10° 252° (WSW) 14:45:36 437.485
SPROUT 23 Aug 14:54:47 14:57:05 14° 301° (WNW) 14:59:21 437.525
DX 1 23 Aug 15:00:23 15:04:33 45° 291° (WNW) 15:08:41 434.975-435.025
BEESAT 2 23 Aug 15:03:05 15:05:57 19° 247° (WSW) 15:08:48 435.950
VELOX 1 23 Aug 15:09:54 15:12:17 14° 302° (WNW) 15:14:39 145.980
ITUPSAT 1 23 Aug 15:10:01 15:13:38 21° 92° (E) 15:17:14 437.325
50 SAT 23 Aug 15:19:32 15:21:26 14° 297° (WNW) 15:23:19 437.505
MOZHAYETS 4 23 Aug 15:27:52 15:31:50 27° 94° (E) 15:35:47
DOVE 4 23 Aug 15:39:58 15:42:46 15° 58° (ENE) 15:45:31 437.250
ITAMSAT 1 23 Aug 15:40:05 15:45:16 66° 257° (WSW) 15:50:27 435.822/435.867
RS-15 23 Aug 15:45:40 15:56:41 35° 360° (N) 16:07:26 29.354- 29.394
CUBESAT XI-V 23 Aug 15:57:16 15:59:22 13° 87° (E) 16:01:27 437.345
ISS 23 Aug 15:58:23 16:01:04 23° 219° (SW) 16:03:44 437.550
nSIGHT-1 23 Aug 16:02:48 16:05:18 21° 220° (SW) 16:07:48 .
UKube-1 23 Aug 16:09:31 16:12:10 16° 301° (WNW) 16:14:49 .
BEESAT 23 Aug 16:10:30 16:15:17 76° 104° (ESE) 16:20:03 436.000
YUBILEINY 23 Aug 16:25:04 16:33:53 79° 281° (W) 16:42:41 435.215
AO-7 23 Aug 16:32:44 16:40:09 34° 264° (W) 16:47:37 .
CUTE-I 23 Aug 16:33:59 16:37:20 17° 56° (NE) 16:40:40 437.470
KAITUO 1B 23 Aug 16:44:45 16:45:19 10° 59° (ENE) 16:45:53 145.475/437.950
ITUPSAT 1 23 Aug 16:47:07 16:51:46 52° 290° (WNW) 16:56:24 437.325
HO-68 23 Aug 16:52:06 16:56:15 17° 46° (NE) 17:00:24 435.675
KKS-1 23 Aug 16:53:54 16:57:04 19° 92° (E) 17:00:12 437.445
MOZHAYETS 4 23 Aug 17:04:49 17:09:04 37° 292° (WNW) 17:13:20
NUDT-PHONESAT 23 Aug 17:10:26 17:13:00 18° 64° (ENE) 17:15:35 437.300
DOVE 4 23 Aug 17:14:28 17:19:45 85° 75° (ENE) 17:24:51 437.250
LilacSat-2 23 Aug 17:15:44 17:19:02 29° 68° (ENE) 17:22:23 437.200
XW-2D 23 Aug 17:15:58 17:19:13 28° 68° (ENE) 17:22:31 145.860 - 145.880
STARS 23 Aug 17:23:49 17:26:34 16° 91° (E) 17:29:18 437.465
XW-2B 23 Aug 17:26:53 17:30:20 35° 70° (ENE) 17:33:50 145.730 - 145.750
CUBESAT XI-V 23 Aug 17:32:36 17:37:22 83° 285° (WNW) 17:42:04 437.345
XW-2C 23 Aug 17:45:51 17:49:32 59° 74° (ENE) 17:53:18 145.795 - 145.815
BEESAT 23 Aug 17:49:32 17:52:30 17° 302° (WNW) 17:55:27 436.000
XW-2F 23 Aug 17:55:17 17:59:01 72° 75° (ENE) 18:02:49 145.980 - 146.000
CUTE 1.7 + AOD 2 23 Aug 17:55:30 17:58:23 18° 62° (ENE) 18:01:16 437.475
O/OREOS (USA 219) 23 Aug 17:57:39 18:01:50 35° 56° (NE) 18:06:00 437.305
RS-15 23 Aug 18:00:54 18:12:47 51° 33° (NNE) 18:24:04 29.354- 29.394
CUTE-I 23 Aug 18:11:19 18:16:40 88° 249° (WSW) 18:22:04 437.470
KAITUO 1B 23 Aug 18:14:58 18:18:42 83° 257° (WSW) 18:22:28 145.475/437.950
YUBILEINY 23 Aug 18:26:07 18:32:18 21° 305° (NW) 18:38:31 435.215
UWE-3 23 Aug 18:26:56 18:28:38 12° 59° (ENE) 18:30:21 435.000/436.395/437.385
KKS-1 23 Aug 18:29:36 18:33:55 51° 290° (WNW) 18:38:11 437.445
HO-68 23 Aug 18:35:39 18:42:41 64° 67° (ENE) 18:49:45 435.675
SEEDS 23 Aug 18:36:11 18:39:48 28° 66° (ENE) 18:43:26 437.485
CUBEBUG 2 23 Aug 18:38:59 18:42:27 25° 66° (ENE) 18:45:53 437.445
NUDT-PHONESAT 23 Aug 18:43:09 18:46:37 39° 263° (W) 18:50:07 437.300
LilacSat-2 23 Aug 18:50:11 18:53:19 24° 266° (W) 18:56:29 437.200
XW-2D 23 Aug 18:50:16 18:53:24 25° 266° (W) 18:56:34 145.860 - 145.880
XW-2A 23 Aug 18:54:45 18:57:40 29° 70° (ENE) 19:00:39 145.665 - 145.685
DOVE 4 23 Aug 18:55:07 18:57:59 15° 273° (W) 19:00:48 437.250
ZACube-1 23 Aug 18:58:41 19:00:58 15° 60° (ENE) 19:03:16 437.345
STARS 23 Aug 18:58:59 19:03:17 58° 289° (WNW) 19:07:33 437.465
XW-2B 23 Aug 19:01:50 19:04:38 20° 267° (W) 19:07:29 145.730 - 145.750
AAUSAT CUBESAT 2 23 Aug 19:11:46 19:15:27 31° 67° (ENE) 19:19:09 437.432
CUBESAT XI-V 23 Aug 19:11:54 19:13:59 13° 304° (NW) 19:16:04 437.345
AO-73 23 Aug 19:17:04 19:20:02 19° 63° (ENE) 19:23:01 145.935
XW-2C 23 Aug 19:22:32 19:24:08 12° 271° (W) 19:25:44 145.795 - 145.815
STRAND 1 23 Aug 19:23:05 19:27:05 23° 92° (E) 19:31:04 437.568
CUTE 1.7 + AOD 2 23 Aug 19:29:39 19:33:49 55° 260° (W) 19:38:02 437.475
XW-2F 23 Aug 19:33:28 19:33:38 10° 273° (W) 19:33:49 145.980 - 146.000
O/OREOS (USA 219) 23 Aug 19:37:11 19:41:10 31° 254° (WSW) 19:45:11 437.305
CUTE-I 23 Aug 19:54:55 19:57:30 13° 273° (W) 20:00:05 437.470
Oscar 11 23 Aug 19:57:05 20:01:03 37° 68° (ENE) 20:05:02 .
UWE-3 23 Aug 20:00:20 20:04:31 81° 259° (W) 20:08:40 435.000/436.395/437.385
SEEDS 23 Aug 20:11:38 20:15:24 32° 264° (W) 20:19:14 437.485
RS-15 23 Aug 20:14:03 20:26:02 70° 241° (WSW) 20:37:21 29.354- 29.394
CUBEBUG 2 23 Aug 20:15:06 20:18:58 34° 263° (W) 20:22:47 437.445
HO-68 23 Aug 20:24:50 20:30:54 29° 267° (W) 20:37:00 435.675
XW-2A 23 Aug 20:28:07 20:30:29 18° 267° (W) 20:32:52 145.665 - 145.685
Max Valier Satellite 23 Aug 20:28:57 20:30:58 14° 62° (ENE) 20:32:59 145.860
ZACube-1 23 Aug 20:32:39 20:36:46 66° 259° (WSW) 20:40:54 437.345
AAUSAT CUBESAT 2 23 Aug 20:47:17 20:50:53 28° 265° (W) 20:54:32 437.432
AO-73 23 Aug 20:52:00 20:55:58 45° 261° (W) 20:59:59 145.935
STRAND 1 23 Aug 21:01:37 21:06:35 53° 290° (WNW) 21:11:32 437.568
EO-88 23 Aug 21:14:07 21:17:24 33° 70° (ENE) 21:20:44 145.990 - 145.960
DELFI C3 23 Aug 21:21:40 21:25:39 71° 74° (ENE) 21:29:40 145.870
Oscar 11 23 Aug 21:33:44 21:37:17 25° 267° (W) 21:40:51 .
UNISAT 6 23 Aug 21:40:40 21:43:17 15° 90° (E) 21:45:54 437.425
SO-50 23 Aug 21:49:38 21:52:50 19° 113° (ESE) 21:56:03 436.795
Max Valier Satellite 23 Aug 22:00:51 22:04:24 52° 260° (W) 22:08:00 145.860
PCSat 23 Aug 22:08:15 22:13:27 50° 116° (ESE) 22:18:42 145.827
FO-29 23 Aug 22:12:40 22:18:14 65° 102° (ESE) 22:23:24 435.910
TIGRISAT 23 Aug 22:13:52 22:17:41 30° 96° (E) 22:21:32 435.000
PRISM 23 Aug 22:19:39 22:23:01 24° 94° (E) 22:26:21 437.425
RS-15 23 Aug 22:28:49 22:36:02 19° 265° (W) 22:43:05 29.354- 29.394
LO-87 23 Aug 22:32:55 22:36:16 38° 71° (ENE) 22:39:36 145.935 - 145.965
SPROUT 23 Aug 22:41:31 22:42:39 11° 57° (ENE) 22:43:48 437.525
EO-88 23 Aug 22:48:29 22:51:10 19° 267° (W) 22:53:54 145.990 - 145.960
VELOX 1 23 Aug 22:58:15 23:00:39 15° 58° (ENE) 23:03:04 145.980
DELFI C3 23 Aug 22:59:29 23:00:54 12° 272° (W) 23:02:19 145.870
ESTCUBE 1 23 Aug 23:04:01 23:08:28 61° 72° (ENE) 23:12:58 437.505/2401.250
UNISAT 6 23 Aug 23:16:06 23:20:22 61° 287° (WNW) 23:24:42 437.425
EO-79 23 Aug 23:28:01 23:29:10 11° 87° (E) 23:30:19 145.935-145.965
QB50P2 23 Aug 23:28:03 23:29:47 12° 88° (E) 23:31:33 145.880/145.840
SO-50 23 Aug 23:28:23 23:32:52 63° 311° (NW) 23:37:22 436.795
NO-84 23 Aug 23:47:28 23:48:23 11° 130° (SE) 23:49:18 435.350 FM
TIGRISAT 23 Aug 23:50:33 23:54:22 31° 293° (WNW) 23:58:13 435.000
PCSat 23 Aug 23:52:07 23:57:03 34° 317° (NW) 00:02:01 145.827
DUCHIFAT 1 23 Aug 23:52:33 23:55:11 16° 91° (E) 23:57:49 145.980
PRISM 23 Aug 23:54:36 23:58:23 35° 292° (WNW) 00:02:08 437.425
UKube-1 23 Aug 23:57:04 23:58:37 12° 56° (NE) 00:00:10 .
FO-29 23 Aug 23:58:42 00:02:47 21° 304° (WNW) 00:06:39 435.910
LO-87 24 Aug 00:07:30 00:09:51 16° 268° (W) 00:12:12 145.935 - 145.965
SPROUT 24 Aug 00:13:35 00:17:50 83° 76° (ENE) 00:22:07 437.525
AIST 2D 24 Aug 00:14:52 00:18:27 87° 99° (E) 00:22:02 435.315
50 SAT 24 Aug 00:19:56 00:22:50 27° 68° (ENE) 00:25:46 437.505
DX 1 24 Aug 00:23:17 00:27:02 29° 65° (ENE) 00:30:48 434.975-435.025
M-CUBED/EXP-1 PRIME 24 Aug 00:28:06 00:32:20 48° 104° (ESE) 00:36:14 437.505
VELOX 1 24 Aug 00:32:03 00:36:30 79° 255° (WSW) 00:41:00 145.980
YUBILEINY 24 Aug 00:35:43 00:40:47 16° 50° (NE) 00:45:49 435.215
NANOSAT C BR1 24 Aug 00:38:28 00:42:35 52° 100° (E) 00:46:41 145.865
ESTCUBE 1 24 Aug 00:42:49 00:45:41 17° 270° (W) 00:48:35 437.505/2401.250
POLYITAN 1 24 Aug 00:46:27 00:50:41 71° 102° (ESE) 00:54:54 437.675
EO-79 24 Aug 01:01:16 01:05:30 81° 284° (WNW) 01:09:42 145.935-145.965
QB50P2 24 Aug 01:01:52 01:06:06 73° 285° (WNW) 01:10:17 145.880/145.840
SO-50 24 Aug 01:11:17 01:14:12 17° 333° (NNW) 01:17:08 436.795
BUGSAT 1 24 Aug 01:13:22 01:16:58 31° 97° (E) 01:20:34 437.445
NO-84 24 Aug 01:22:26 01:25:20 88° 313° (NW) 01:28:11 435.350 FM
DUCHIFAT 1 24 Aug 01:27:05 01:31:11 54° 288° (WNW) 01:35:16 145.980
UKube-1 24 Aug 01:29:36 01:33:56 85° 71° (ENE) 01:38:18 .
PCSat 24 Aug 01:39:50 01:42:10 13° 341° (NNW) 01:44:30 145.827
BEESAT 24 Aug 01:44:13 01:47:30 19° 59° (ENE) 01:50:48 436.000
50 SAT 24 Aug 01:52:49 01:55:29 21° 265° (W) 01:58:11 437.505
SPROUT 24 Aug 01:53:13 01:54:19 11° 273° (W) 01:55:26 437.525
DX 1 24 Aug 01:59:09 02:03:08 34° 263° (W) 02:07:07 434.975-435.025
M-CUBED/EXP-1 PRIME 24 Aug 02:03:03 02:06:23 22° 304° (NW) 02:09:32 437.505
NANOSAT C BR1 24 Aug 02:15:04 02:17:56 18° 298° (WNW) 02:20:47 145.865
ITUPSAT 1 24 Aug 02:19:42 02:24:01 36° 66° (ENE) 02:28:22 437.325
Oscar 19 24 Aug 02:21:56 02:27:09 67° 103° (ESE) 02:32:20 437.125/150
POLYITAN 1 24 Aug 02:23:40 02:25:56 14° 301° (WNW) 02:28:12 437.675
Gurwin Techsat 1B 24 Aug 02:24:09 02:29:18 48° 99° (E) 02:34:25 435.225
YUBILEINY 24 Aug 02:31:02 02:39:42 64° 76° (ENE) 02:48:19 435.215
MOZHAYETS 4 24 Aug 02:32:47 02:36:59 38° 68° (ENE) 02:41:14
AO-7 24 Aug 02:38:36 02:42:50 15° 84° (E) 02:47:03 .
EO-79 24 Aug 02:39:40 02:40:32 11° 303° (WNW) 02:41:23 145.935-145.965
BUGSAT 1 24 Aug 02:48:52 02:52:15 26° 294° (WNW) 02:55:37 437.445
NO-84 24 Aug 03:00:40 03:03:01 23° 348° (NNW) 03:05:22 435.350 FM
CUBESAT XI-V 24 Aug 03:03:16 03:06:37 20° 61° (ENE) 03:09:59 437.345
UKube-1 24 Aug 03:09:23 03:10:34 11° 272° (W) 03:11:44 .
BEESAT 24 Aug 03:20:06 03:24:49 64° 258° (WSW) 03:29:34 436.000
PCSat 24 Aug 03:27:52 03:28:13 10° 8° (N) 03:28:34 145.827
ITAMSAT 1 24 Aug 03:49:36 03:54:15 33° 96° (E) 03:58:53 435.822/435.867
KKS-1 24 Aug 03:54:50 03:58:37 28° 64° (ENE) 04:02:23 437.445
ITUPSAT 1 24 Aug 03:57:43 04:01:53 30° 264° (W) 04:06:06 437.325
Oscar 19 24 Aug 04:02:11 04:06:00 21° 301° (WNW) 04:09:46 437.125/150
Gurwin Techsat 1B 24 Aug 04:04:32 04:09:01 28° 298° (WNW) 04:13:30 435.225
MOZHAYETS 4 24 Aug 04:10:27 04:14:16 26° 266° (W) 04:18:06
STARS 24 Aug 04:23:16 04:26:46 23° 63° (ENE) 04:30:15 437.465
YUBILEINY 24 Aug 04:28:33 04:35:57 33° 278° (W) 04:43:21 435.215
AO-7 24 Aug 04:28:53 04:37:13 68° 105° (ESE) 04:45:28 .
BEESAT 3 24 Aug 04:33:30 04:37:24 51° 122° (ESE) 04:41:21 437.485
SO-50 24 Aug 04:36:27 04:39:02 15° 23° (NNE) 04:41:36 436.795
NO-84 24 Aug 04:38:48 04:41:04 21° 9° (N) 04:43:24 435.350 FM
CUBESAT XI-V 24 Aug 04:38:57 04:43:34 59° 259° (W) 04:48:14 437.345
BEESAT 2 24 Aug 04:56:15 04:59:47 30° 117° (ESE) 05:03:22 435.950
AO-85 24 Aug 04:58:03 05:01:51 52° 123° (ESE) 05:05:41 145.980
PCSat 24 Aug 05:09:42 05:13:50 21° 34° (NE) 05:17:57 145.827
DOVE 4 24 Aug 05:11:29 05:14:21 17° 88° (E) 05:17:08 437.250
ITAMSAT 1 24 Aug 05:29:00 05:33:46 38° 294° (WNW) 05:38:30 435.822/435.867
KKS-1 24 Aug 05:30:55 05:35:02 36° 262° (W) 05:39:11 437.445
STARS 24 Aug 05:58:41 06:02:52 42° 261° (W) 06:07:04 437.465
NUDT-PHONESAT 24 Aug 06:10:42 06:12:58 15° 91° (E) 06:15:13 437.300
BEESAT 3 24 Aug 06:11:50 06:15:12 25° 322° (NW) 06:18:37 437.485
NO-84 24 Aug 06:15:57 06:18:51 62° 29° (NNE) 06:21:54 435.350 FM
SO-50 24 Aug 06:16:07 06:20:32 49° 45° (NE) 06:25:00 436.795
XW-2D 24 Aug 06:18:46 06:22:02 26° 95° (E) 06:25:18 145.860 - 145.880
